Regional Weather Roundup
Issued by NWS

Home | Current Version | Previous Version | Graphics & Text | Print | Product List | Glossary On
Versions: 1 2 3 4 5 6 7 8 9 10 11 12 13 14 15 16 17 18 19 20 21 22 23 24 25 26 27 28 29 30 31 32 33 34 35 36 37 38 39 40 41 42 43 44 45 46 47 48 49 50
000
ASUS43 KOAX 061802
RWRNE

WEATHER ROUNDUP FOR NEBRASKA
NATIONAL WEATHER SERVICE OMAHA NE
100 PM CDT WED MAY 06 2015

NOTES: SATELLITE DATA IS BEING USED TO AUGMENT CLOUD COVER ABOVE
       12000 FEET.
       "FAIR" INDICATES FEW OR NO CLOUDS BELOW 12,000 FEET WITH NO
       SIGNIFICANT WEATHER AND/OR OBSTRUCTIONS TO VISIBILITY.

  * THESE STATIONS DO NOT REPORT WEATHER SUCH AS RAIN...SNOW OR FOG.

NEZ001>004-019>022-054>056-061900-
NEBRASKA PANHANDLE

CITY           SKY/WX    TMP DP  RH WIND       PRES   REMARKS
SCOTTSBLUFF    CLOUDY    59  51  75 SE7       29.66S
6HR MIN TEMP:  53; 6HR MAX TEMP:  60; 6HR PCP:  0.01;

ALLIANCE       CLOUDY    58  52  80 SE12      29.65F
6HR MIN TEMP:  52; 6HR MAX TEMP:  59;

CHADRON        CLOUDY    61  52  72 CALM      29.65F
6HR MIN TEMP:  53; 6HR MAX TEMP:  61; 6HR PCP:  0.02;

KIMBALL        CLOUDY    56  53  92 NE6       29.65F
SIDNEY         LGT RAIN  54  52  93 E10       29.65S FOG
6HR MIN TEMP:  50; 6HR MAX TEMP:  55; 6HR PCP:  0.03;

$$

NEZ057>060-069>072-079>082-061900-
SOUTHWEST NEBRASKA

CITY           SKY/WX    TMP DP  RH WIND       PRES   REMARKS
NORTH PLATTE   LGT RAIN  65  56  72 S10       29.67F
6HR MIN TEMP:  58; 6HR MAX TEMP:  65; 6HR PCP:  0.04;

IMPERIAL       CLOUDY    60  52  74 SE15      29.66S
6HR MIN TEMP:  53; 6HR MAX TEMP:  60; 6HR PCP: TRACE;

LEXINGTON      CLOUDY    65  58  78 SE24      29.70S
MCCOOK         CLOUDY    63  53  70 S18       29.68S
6HR MIN TEMP:  60; 6HR MAX TEMP:  66;

$$

NEZ005>010-023>029-035>040-094-061900-
NORTH CENTRAL NEBRASKA

CITY           SKY/WX    TMP DP  RH WIND       PRES   REMARKS
VALENTINE      LGT RAIN  61  58  90 SE22G30   29.66F
6HR MIN TEMP:  58; 6HR MAX TEMP:  65; 6HR PCP:  0.18;

AINSWORTH      RAIN      61  59  94 S16       29.69S
BROKEN BOW     CLOUDY    67  59  75 S20G25    29.69F
6HR MIN TEMP:  60; 6HR MAX TEMP:  67; 6HR PCP:  0.04;

ORD            CLOUDY    66  59  78 S14       29.70F
6HR MIN TEMP:  60; 6HR MAX TEMP:  66; 6HR PCP:  0.03;

$$

NEZ041-046>049-061>064-073>077-083>087-061900-
SOUTH CENTRAL NEBRASKA

CITY           SKY/WX    TMP DP  RH WIND       PRES   REMARKS
GRAND ISLAND   CLOUDY    63  58  83 S21       29.76F
6HR MIN TEMP:  60; 6HR MAX TEMP:  66; 6HR PCP:  0.05;

AURORA         CLOUDY    63  62  97 S17G25    29.77F
HASTINGS       LGT RAIN  61  59  93 S14G21    29.75F FOG
6HR MIN TEMP:  60; 6HR MAX TEMP:  63; 6HR PCP:  0.05;

KEARNEY *      CLOUDY    63  57  82 S22G28    29.73F
$$

NEZ011>018-030>034-042>045-061900-
NORTHEAST NEBRASKA

CITY           SKY/WX    TMP DP  RH WIND       PRES   REMARKS
NORFOLK        PTSUNNY   68  61  78 S18G28    29.76F
6HR MIN TEMP:  61; 6HR MAX TEMP:  68; 6HR PCP:  0.20;

COLUMBUS *     CLOUDY    64  57  77 S17G24    29.80S
TEKAMAH        PTSUNNY   73  60  63 S23       29.82F
6HR MIN TEMP:  63; 6HR MAX TEMP:  73; 6HR PCP:  0.02;

$$

NEZ050>053-065>068-078-088>093-061900-
SOUTHEAST NEBRASKA

CITY           SKY/WX    TMP DP  RH WIND       PRES   REMARKS
LINCOLN        CLOUDY    64  61  90 S14       29.83S
6HR MIN TEMP:  63; 6HR MAX TEMP:  69; 6HR PCP:  0.06;

OMAHA EPPLEY   PTSUNNY   71  60  68 S25G33    29.84F
6HR MIN TEMP:  63; 6HR MAX TEMP:  73; 6HR PCP:  0.06;

FALLS CITY     LGT RAIN  67  58  72 S18G31    29.90S
6HR MIN TEMP:  64; 6HR MAX TEMP:  71; 6HR PCP: TRACE;

PLATTSMOUTH    CLOUDY    69  59  71 S16G24    29.86S
$$

NEZ044-045-051>053-067-061900-
OMAHA AREA

CITY           SKY/WX    TMP DP  RH WIND       PRES   REMARKS
OMAHA EPPLEY   PTSUNNY   71  60  68 S25G33    29.84F
6HR MIN TEMP:  63; 6HR MAX TEMP:  73; 6HR PCP:  0.06;

PLATTSMOUTH    CLOUDY    69  59  71 S16G24    29.86S
$$



USA.gov is the U.S. government's official web portal to all federal, state and local government web resources and services.